This is the latest recevied weather packets stored in our database for station/object N3SBK. If no packets are shown the sender has not sent any weather packets the latest 10 day(s).
| Time | Temp. | Humidity | Pressure | Rain* | Wind** | Luminosity | Snow |
|---|---|---|---|---|---|---|---|
| 1777961984 | 17.78° C | 56% | 999.9 hPa | 0 mm | - | 0 W/m² | - |
| 1777961683 | 17.78° C | 55% | 999.4 hPa | 0 mm | - | 0 W/m² | - |
| 1777961380 | 17.78° C | 55% | 999.5 hPa | 0 mm | - | 0 W/m² | - |
| 1777961077 | 18.33° C | 55% | 999.8 hPa | 0 mm | - | 0 W/m² | - |
| 1777960773 | 18.33° C | 54% | 999.8 hPa | 0 mm | - | 0 W/m² | - |
| 1777960469 | 18.33° C | 55% | 999.8 hPa | 0 mm | - | 0 W/m² | - |
| 1777960167 | 18.33° C | 55% | 999.8 hPa | 0 mm | - | 0 W/m² | - |
| 1777959864 | 17.78° C | 55% | 1000 hPa | 0 mm | - | 0 W/m² | - |
| 1777959562 | 17.78° C | 56% | 1000 hPa | 0 mm | - | 0 W/m² | - |
| 1777959258 | 16.67° C | 58% | 1000.1 hPa | 0 mm | - | 0 W/m² | - |
| 1777958955 | 16.67° C | 60% | 1000.2 hPa | 0 mm | - | 0 W/m² | - |
| 1777958652 | 16.11° C | 62% | 1000.2 hPa | 0 mm | - | 0 W/m² | - |
| 1777958350 | 15.56° C | 63% | 1000.2 hPa | 0 mm | - | 0 W/m² | - |
| 1777958047 | 15.56° C | 63% | 1000.2 hPa | 0 mm | - | 0 W/m² | - |
| 1777957745 | 15.56° C | 64% | 1000.2 hPa | 0 mm | - | 0 W/m² | - |
| 1777957443 | 15.56° C | 63% | 1000.1 hPa | 0 mm | - | 0 W/m² | - |
| 1777957139 | 15.56° C | 63% | 1000.2 hPa | 0 mm | - | 0 W/m² | - |
| 1777956836 | 15.56° C | 62% | 1000.1 hPa | 0 mm | - | 0 W/m² | - |
| 1777956533 | 15.56° C | 62% | 1000 hPa | 0 mm | - | 0 W/m² | - |
| 1777956230 | 15.56° C | 61% | 1000.2 hPa | 0 mm | - | 0 W/m² | - |
| 1777955926 | 15.56° C | 61% | 1000 hPa | 0 mm | - | 0 W/m² | - |
| 1777955623 | 15.56° C | 61% | 1000 hPa | 0 mm | - | 0 W/m² | - |
| 1777955319 | 15.56° C | 61% | 999.9 hPa | 0 mm | - | 0 W/m² | - |
| 1777955016 | 15.56° C | 61% | 1000 hPa | 0 mm | - | 0 W/m² | - |
| 1777954713 | 16.11° C | 61% | 999.9 hPa | 0 mm | - | 0 W/m² | - |
* Rain latest hour (hover to see other rain measurements)
** Current wind speed in m/s (hover to see current wind gust speed)